Time,TemperatureF,DewpointF,PressureIn,WindDirection,WindDirectionDegrees,WindSpeedMPH,WindSpeedGustMPH,Humidity,HourlyPrecipIn,Conditions,Clouds,dailyrainin,SoftwareType,DateUTC
2013-01-30 00:01:00,58.8,58.8,30.00,SW,225,3.1,4.0,100,0.04,,---,0.00,VWS V14.00,2013-01-30 05:01:00,
2013-01-30 00:03:00,58.8,58.8,30.00,ESE,112,0.0,3.1,100,0.06,,---,0.02,VWS V14.00,2013-01-30 05:03:00,
2013-01-30 00:08:00,58.8,58.8,29.99,SSW,202,0.0,3.1,100,0.06,,---,0.02,VWS V14.00,2013-01-30 05:08:00,
2013-01-30 00:13:00,58.8,58.8,30.00,SSE,158,19.6,19.6,100,0.04,,---,0.02,VWS V14.00,2013-01-30 05:13:00,
2013-01-30 00:18:00,59.0,59.0,29.99,South,180,10.5,19.6,100,0.04,,---,0.02,VWS V14.00,2013-01-30 05:18:00,
2013-01-30 00:23:00,59.1,59.1,29.99,SSW,202,3.8,3.8,100,0.04,,---,0.02,VWS V14.00,2013-01-30 05:23:00,
2013-01-30 00:28:00,59.3,59.3,29.99,SSE,158,2.0,3.8,100,0.04,,---,0.02,VWS V14.00,2013-01-30 05:28:00,
2013-01-30 00:33:00,59.3,59.3,29.98,SSE,158,4.2,4.2,100,0.02,,---,0.02,VWS V14.00,2013-01-30 05:33:00,
2013-01-30 00:38:00,59.5,59.5,29.98,South,180,8.2,11.1,100,0.02,,---,0.02,VWS V14.00,2013-01-30 05:38:00,
2013-01-30 00:43:00,59.5,59.5,29.97,SE,135,0.0,2.0,100,0.02,,---,0.02,VWS V14.00,2013-01-30 05:43:00,
2013-01-30 00:48:00,59.3,59.3,29.98,South,180,3.8,5.1,100,0.02,,---,0.02,VWS V14.00,2013-01-30 05:48:00,
2013-01-30 00:53:00,59.3,59.3,29.97,WNW,292,0.0,0.0,100,0.02,,---,0.02,VWS V14.00,2013-01-30 05:53:00,
2013-01-30 00:58:00,59.3,59.3,29.97,SSE,158,0.0,1.7,100,0.02,,---,0.02,VWS V14.00,2013-01-30 05:58:00,
2013-01-30 01:03:00,59.1,59.1,29.97,SE,135,5.5,5.5,100,0.02,,---,0.02,VWS V14.00,2013-01-30 06:03:00,
2013-01-30 01:08:00,59.1,59.1,29.97,WSW,248,2.4,5.5,100,0.02,,---,0.02,VWS V14.00,2013-01-30 06:08:00,
2013-01-30 01:13:00,59.3,59.3,29.97,ESE,112,0.0,1.7,100,0.00,,---,0.02,VWS V14.00,2013-01-30 06:13:00,
2013-01-30 01:18:00,59.3,59.3,29.97,ESE,112,0.0,1.7,100,0.00,,---,0.02,VWS V14.00,2013-01-30 06:18:00,
2013-01-30 01:23:00,59.3,59.3,29.97,WSW,248,0.0,0.0,100,0.00,,---,0.02,VWS V14.00,2013-01-30 06:23:00,
2013-01-30 01:28:00,59.3,59.3,29.96,ESE,112,4.0,5.8,100,0.00,,---,0.02,VWS V14.00,2013-01-30 06:28:00,
2013-01-30 01:33:00,59.3,59.3,29.96,NE,45,4.0,4.0,100,0.00,,---,0.02,VWS V14.00,2013-01-30 06:33:00,
2013-01-30 01:38:00,59.3,59.3,29.96,West,270,1.3,6.9,100,0.00,,---,0.02,VWS V14.00,2013-01-30 06:38:00,
2013-01-30 01:44:00,59.3,59.3,29.96,ESE,112,3.8,3.8,100,0.00,,---,0.02,VWS V14.00,2013-01-30 06:44:00,
2013-01-30 01:49:00,59.1,59.1,29.96,SSE,158,5.5,5.5,100,0.02,,---,0.04,VWS V14.00,2013-01-30 06:49:00,
2013-01-30 01:54:00,59.0,59.0,29.96,WSW,248,1.3,1.3,100,0.02,,---,0.04,VWS V14.00,2013-01-30 06:54:00,
2013-01-30 01:59:00,59.0,59.0,29.96,East,90,0.0,1.3,100,0.02,,---,0.04,VWS V14.00,2013-01-30 06:59:00,
2013-01-30 02:04:00,59.1,59.1,29.96,South,180,1.3,4.2,100,0.02,,---,0.04,VWS V14.00,2013-01-30 07:04:00,
2013-01-30 02:09:00,59.1,59.1,29.95,NE,45,0.0,4.2,100,0.02,,---,0.04,VWS V14.00,2013-01-30 07:09:00,
2013-01-30 02:14:00,59.1,59.1,29.95,SSW,202,0.0,1.3,100,0.02,,---,0.04,VWS V14.00,2013-01-30 07:14:00,
2013-01-30 02:19:00,59.5,59.5,29.95,SSE,158,0.0,2.2,100,0.02,,---,0.04,VWS V14.00,2013-01-30 07:19:00,
2013-01-30 02:24:00,59.5,59.5,29.95,South,180,7.3,7.3,100,0.02,,---,0.04,VWS V14.00,2013-01-30 07:24:00,
2013-01-30 02:29:00,59.5,59.5,29.95,WNW,292,0.0,7.3,100,0.02,,---,0.04,VWS V14.00,2013-01-30 07:29:00,
2013-01-30 02:34:00,59.5,59.5,29.95,South,180,8.2,8.2,100,0.02,,---,0.04,VWS V14.00,2013-01-30 07:34:00,
2013-01-30 02:39:00,59.7,59.7,29.94,SE,135,0.0,8.2,100,0.02,,---,0.04,VWS V14.00,2013-01-30 07:39:00,
2013-01-30 02:44:00,59.5,59.5,29.93,ESE,112,0.0,3.1,100,0.02,,---,0.04,VWS V14.00,2013-01-30 07:44:00,
2013-01-30 02:49:00,59.5,59.2,29.93,ENE,68,0.0,5.1,99,0.02,,---,0.04,VWS V14.00,2013-01-30 07:49:00,
2013-01-30 02:54:00,59.5,59.2,29.93,SSW,202,0.0,2.0,99,0.00,,---,0.04,VWS V14.00,2013-01-30 07:54:00,
2013-01-30 02:59:00,59.5,59.2,29.93,SW,225,7.1,7.1,99,0.00,,---,0.04,VWS V14.00,2013-01-30 07:59:00,
2013-01-30 03:04:00,59.7,59.1,29.93,East,90,2.9,9.3,98,0.00,,---,0.04,VWS V14.00,2013-01-30 08:04:00,
2013-01-30 03:09:00,59.7,59.1,29.93,SSW,202,3.1,9.3,98,0.00,,---,0.04,VWS V14.00,2013-01-30 08:09:00,
2013-01-30 03:14:00,59.7,59.1,29.93,SSE,158,1.3,7.6,98,0.02,,---,0.06,VWS V14.00,2013-01-30 08:14:00,
2013-01-30 03:19:00,59.5,58.7,29.93,North,0,3.3,7.6,97,0.02,,---,0.06,VWS V14.00,2013-01-30 08:19:00,
2013-01-30 03:24:00,59.5,58.7,29.92,WNW,292,0.0,5.5,97,0.02,,---,0.06,VWS V14.00,2013-01-30 08:24:00,
2013-01-30 03:29:00,59.7,58.6,29.92,South,180,0.6,5.5,96,0.02,,---,0.06,VWS V14.00,2013-01-30 08:29:00,
2013-01-30 03:34:00,59.9,58.5,29.92,SSE,158,0.0,4.2,95,0.02,,---,0.06,VWS V14.00,2013-01-30 08:34:00,
2013-01-30 03:39:00,60.0,58.6,29.91,NW,315,2.6,4.2,95,0.02,,---,0.06,VWS V14.00,2013-01-30 08:39:00,
2013-01-30 03:44:00,59.9,58.5,29.91,South,180,0.0,1.7,95,0.02,,---,0.06,VWS V14.00,2013-01-30 08:44:00,
2013-01-30 03:49:00,59.9,58.5,29.91,South,180,0.0,1.7,95,0.02,,---,0.06,VWS V14.00,2013-01-30 08:49:00,
2013-01-30 03:54:00,59.7,58.3,29.90,SE,135,3.3,3.3,95,0.02,,---,0.06,VWS V14.00,2013-01-30 08:54:00,
2013-01-30 03:59:00,59.7,58.3,29.89,SSE,158,2.4,3.3,95,0.02,,---,0.06,VWS V14.00,2013-01-30 08:59:00,
2013-01-30 04:04:00,59.5,58.1,29.89,SSE,158,8.5,8.5,95,0.02,,---,0.06,VWS V14.00,2013-01-30 09:04:00,
2013-01-30 04:09:00,59.5,58.7,29.89,South,180,0.0,8.5,97,0.02,,---,0.06,VWS V14.00,2013-01-30 09:09:00,
2013-01-30 04:14:00,59.3,58.5,29.89,SSE,158,5.8,5.8,97,0.00,,---,0.06,VWS V14.00,2013-01-30 09:14:00,
2013-01-30 04:19:00,59.0,58.4,29.89,SSE,158,0.0,5.8,98,0.02,,---,0.08,VWS V14.00,2013-01-30 09:19:00,
2013-01-30 04:24:00,59.1,58.5,29.89,NNE,22,0.0,0.0,98,0.02,,---,0.08,VWS V14.00,2013-01-30 09:24:00,
2013-01-30 04:29:00,59.0,58.7,29.89,SSW,202,5.5,5.5,99,0.02,,---,0.08,VWS V14.00,2013-01-30 09:29:00,
2013-01-30 04:34:00,58.8,58.5,29.89,ENE,68,0.0,2.6,99,0.02,,---,0.08,VWS V14.00,2013-01-30 09:34:00,
2013-01-30 04:39:00,59.0,58.7,29.88,SSE,158,4.9,4.9,99,0.04,,---,0.10,VWS V14.00,2013-01-30 09:39:00,
2013-01-30 04:44:00,59.0,58.7,29.88,SE,135,0.0,0.0,99,0.04,,---,0.10,VWS V14.00,2013-01-30 09:44:00,
2013-01-30 04:49:00,59.1,59.1,29.88,ENE,68,4.0,5.5,100,0.04,,---,0.10,VWS V14.00,2013-01-30 09:49:00,
2013-01-30 04:54:00,59.3,59.3,29.88,WSW,248,0.0,0.6,100,0.04,,---,0.10,VWS V14.00,2013-01-30 09:54:00,
2013-01-30 04:59:00,59.5,59.5,29.87,SW,225,0.0,0.6,100,0.04,,---,0.10,VWS V14.00,2013-01-30 09:59:00,
2013-01-30 05:04:00,59.5,59.5,29.87,SSE,158,0.0,17.2,100,0.04,,---,0.10,VWS V14.00,2013-01-30 10:04:00,
2013-01-30 05:09:00,59.5,59.5,29.87,ESE,112,7.6,17.2,100,0.04,,---,0.10,VWS V14.00,2013-01-30 10:09:00,
2013-01-30 05:14:00,59.5,59.5,29.87,NE,45,2.2,2.2,100,0.04,,---,0.10,VWS V14.00,2013-01-30 10:14:00,
2013-01-30 05:19:00,59.5,59.2,29.86,NE,45,2.0,9.3,99,0.04,,---,0.10,VWS V14.00,2013-01-30 10:19:00,
2013-01-30 05:24:00,59.7,59.4,29.85,NW,315,5.8,5.8,99,0.02,,---,0.10,VWS V14.00,2013-01-30 10:24:00,
2013-01-30 05:29:00,59.7,59.4,29.85,NE,45,1.3,5.8,99,0.02,,---,0.10,VWS V14.00,2013-01-30 10:29:00,
2013-01-30 05:34:00,59.5,59.2,29.85,ENE,68,2.2,4.9,99,0.02,,---,0.10,VWS V14.00,2013-01-30 10:34:00,
2013-01-30 05:39:00,59.5,59.2,29.85,SSE,158,4.9,4.9,99,0.02,,---,0.10,VWS V14.00,2013-01-30 10:39:00,
2013-01-30 05:44:00,59.5,59.2,29.85,SSE,158,5.5,5.5,99,0.00,,---,0.10,VWS V14.00,2013-01-30 10:44:00,
2013-01-30 05:49:00,59.5,59.2,29.85,NW,315,3.3,5.5,99,0.00,,---,0.10,VWS V14.00,2013-01-30 10:49:00,
2013-01-30 05:54:00,59.5,59.2,29.85,SSE,158,4.6,4.6,99,0.00,,---,0.10,VWS V14.00,2013-01-30 10:54:00,
2013-01-30 05:59:00,59.5,59.5,29.84,West,270,6.0,6.0,100,0.00,,---,0.10,VWS V14.00,2013-01-30 10:59:00,
2013-01-30 06:05:00,59.5,59.5,29.85,West,270,0.0,3.8,100,0.00,,---,0.10,VWS V14.00,2013-01-30 11:05:00,
2013-01-30 06:10:00,59.5,59.5,29.84,West,270,4.2,4.2,100,0.00,,---,0.10,VWS V14.00,2013-01-30 11:10:00,
2013-01-30 06:15:00,59.5,59.2,29.84,ESE,112,5.8,5.8,99,0.02,,---,0.12,VWS V14.00,2013-01-30 11:15:00,
2013-01-30 06:20:00,59.5,59.2,29.84,SSW,202,5.3,7.1,99,0.02,,---,0.12,VWS V14.00,2013-01-30 11:20:00,
2013-01-30 06:25:00,59.5,59.2,29.83,West,270,8.7,13.8,99,0.02,,---,0.12,VWS V14.00,2013-01-30 11:25:00,
2013-01-30 06:30:00,59.5,59.2,29.83,ESE,112,9.1,13.8,99,0.02,,---,0.12,VWS V14.00,2013-01-30 11:30:00,
2013-01-30 06:35:00,59.5,59.2,29.83,NNW,338,2.6,4.4,99,0.02,,---,0.12,VWS V14.00,2013-01-30 11:35:00,
2013-01-30 06:40:00,59.5,59.2,29.82,SSE,158,4.2,6.2,99,0.02,,---,0.12,VWS V14.00,2013-01-30 11:40:00,
2013-01-30 06:45:00,59.5,59.2,29.83,NW,315,2.2,3.1,99,0.02,,---,0.12,VWS V14.00,2013-01-30 11:45:00,
2013-01-30 06:50:00,59.5,59.5,29.83,East,90,8.9,8.9,100,0.02,,---,0.12,VWS V14.00,2013-01-30 11:50:00,
2013-01-30 06:55:00,59.7,59.7,29.83,East,90,5.8,5.8,100,0.04,,---,0.15,VWS V14.00,2013-01-30 11:55:00,
2013-01-30 07:00:00,59.5,59.5,29.83,SW,225,9.1,9.1,100,0.04,,---,0.15,VWS V14.00,2013-01-30 12:00:00,
2013-01-30 07:05:00,59.5,59.5,29.83,West,270,2.2,9.1,100,0.04,,---,0.15,VWS V14.00,2013-01-30 12:05:00,
2013-01-30 07:10:00,59.5,59.5,29.82,SSE,158,7.6,9.1,100,0.04,,---,0.15,VWS V14.00,2013-01-30 12:10:00,
2013-01-30 07:15:00,59.3,59.3,29.82,SE,135,4.9,9.1,100,0.02,,---,0.15,VWS V14.00,2013-01-30 12:15:00,
2013-01-30 07:20:00,59.3,59.3,29.82,SSE,158,5.5,9.1,100,0.02,,---,0.15,VWS V14.00,2013-01-30 12:20:00,
2013-01-30 07:25:00,59.3,59.3,29.82,NE,45,2.4,3.8,100,0.02,,---,0.15,VWS V14.00,2013-01-30 12:25:00,
2013-01-30 07:30:00,59.5,59.5,29.81,SE,135,0.8,18.5,100,0.02,,---,0.15,VWS V14.00,2013-01-30 12:30:00,
2013-01-30 07:35:00,59.5,59.5,29.80,ENE,68,10.5,10.5,100,0.02,,---,0.15,VWS V14.00,2013-01-30 12:35:00,
2013-01-30 07:40:00,59.7,59.7,29.80,ESE,112,0.0,10.5,100,0.02,,---,0.15,VWS V14.00,2013-01-30 12:40:00,
2013-01-30 07:45:00,59.9,59.9,29.80,SSE,158,16.7,16.7,100,0.02,,---,0.15,VWS V14.00,2013-01-30 12:45:00,
2013-01-30 07:50:00,60.0,60.0,29.80,East,90,5.8,16.7,100,0.02,,---,0.15,VWS V14.00,2013-01-30 12:50:00,
2013-01-30 07:55:00,60.0,60.0,29.81,SSE,158,7.8,7.8,100,0.02,,---,0.15,VWS V14.00,2013-01-30 12:55:00,
2013-01-30 08:00:00,60.2,60.2,29.80,SW,225,5.3,7.8,100,0.02,,---,0.15,VWS V14.00,2013-01-30 13:00:00,
2013-01-30 08:05:00,60.4,60.4,29.79,SE,135,8.9,8.9,100,0.00,,---,0.15,VWS V14.00,2013-01-30 13:05:00,
2013-01-30 08:10:00,60.4,60.4,29.79,South,180,10.2,10.2,100,0.00,,---,0.15,VWS V14.00,2013-01-30 13:10:00,
2013-01-30 08:15:00,60.0,60.0,29.79,NW,315,3.3,6.7,100,0.02,,---,0.17,VWS V14.00,2013-01-30 13:15:00,
2013-01-30 08:20:00,60.0,60.0,29.79,ESE,112,0.6,8.9,100,0.02,,---,0.17,VWS V14.00,2013-01-30 13:20:00,
2013-01-30 08:25:00,59.9,59.9,29.78,NE,45,6.2,6.2,100,0.02,,---,0.17,VWS V14.00,2013-01-30 13:25:00,
2013-01-30 08:30:00,59.9,59.9,29.78,ENE,68,6.0,6.2,100,0.02,,---,0.17,VWS V14.00,2013-01-30 13:30:00,
2013-01-30 08:35:00,59.9,59.9,29.78,SSE,158,1.3,6.0,100,0.02,,---,0.17,VWS V14.00,2013-01-30 13:35:00,
2013-01-30 08:40:00,59.9,59.9,29.78,NE,45,6.4,6.4,100,0.02,,---,0.17,VWS V14.00,2013-01-30 13:40:00,
2013-01-30 08:45:00,59.9,59.9,29.78,ESE,112,1.3,11.4,100,0.02,,---,0.17,VWS V14.00,2013-01-30 13:45:00,
2013-01-30 08:50:00,59.9,59.9,29.79,West,270,8.5,11.4,100,0.02,,---,0.17,VWS V14.00,2013-01-30 13:50:00,
2013-01-30 08:55:00,59.9,59.9,29.79,NNW,338,0.8,5.1,100,0.02,,---,0.17,VWS V14.00,2013-01-30 13:55:00,
2013-01-30 09:01:00,59.9,59.9,29.80,NE,45,5.8,5.8,100,0.02,,---,0.17,VWS V14.00,2013-01-30 14:01:00,
2013-01-30 09:06:00,60.0,60.0,29.79,NNW,338,3.3,5.8,100,0.02,,---,0.17,VWS V14.00,2013-01-30 14:06:00,
2013-01-30 09:11:00,60.0,60.0,29.79,South,180,5.5,6.0,100,0.04,,---,0.19,VWS V14.00,2013-01-30 14:11:00,
2013-01-30 09:16:00,60.2,60.2,29.79,NNW,338,2.6,9.3,100,0.02,,---,0.19,VWS V14.00,2013-01-30 14:16:00,
2013-01-30 09:21:00,60.6,60.6,29.78,SE,135,9.6,9.6,100,0.02,,---,0.19,VWS V14.00,2013-01-30 14:21:00,
2013-01-30 09:26:00,60.6,60.6,29.78,NE,45,0.0,9.6,100,0.02,,---,0.19,VWS V14.00,2013-01-30 14:26:00,
2013-01-30 09:31:00,60.6,60.6,29.78,SSE,158,8.7,8.7,100,0.02,,---,0.19,VWS V14.00,2013-01-30 14:31:00,
2013-01-30 09:36:00,60.6,60.6,29.78,SSW,202,14.9,14.9,100,0.02,,---,0.19,VWS V14.00,2013-01-30 14:36:00,
2013-01-30 09:41:00,60.6,60.6,29.78,SW,225,10.2,10.2,100,0.02,,---,0.19,VWS V14.00,2013-01-30 14:41:00,
2013-01-30 09:46:00,60.6,60.6,29.78,SSE,158,8.2,10.2,100,0.02,,---,0.19,VWS V14.00,2013-01-30 14:46:00,
2013-01-30 09:51:00,60.6,60.6,29.77,SSE,158,0.0,0.0,100,0.02,,---,0.19,VWS V14.00,2013-01-30 14:51:00,
2013-01-30 09:56:00,60.6,60.6,29.77,West,270,6.0,6.0,100,0.02,,---,0.19,VWS V14.00,2013-01-30 14:56:00,
2013-01-30 10:01:00,60.6,60.6,29.77,SSW,202,18.1,18.1,100,0.02,,---,0.19,VWS V14.00,2013-01-30 15:01:00,
2013-01-30 10:06:00,60.9,60.9,29.77,WNW,292,4.0,18.1,100,0.04,,---,0.20,VWS V14.00,2013-01-30 15:06:00,
2013-01-30 10:11:00,60.9,60.9,29.76,South,180,2.4,2.4,100,0.02,,---,0.20,VWS V14.00,2013-01-30 15:11:00,
2013-01-30 10:16:00,60.9,60.9,29.76,East,90,4.6,4.6,100,0.02,,---,0.20,VWS V14.00,2013-01-30 15:16:00,
2013-01-30 10:21:00,61.1,61.1,29.75,East,90,1.7,1.7,100,0.02,,---,0.20,VWS V14.00,2013-01-30 15:21:00,
2013-01-30 10:26:00,61.3,61.3,29.75,NW,315,0.0,6.4,100,0.02,,---,0.20,VWS V14.00,2013-01-30 15:26:00,
2013-01-30 10:31:00,61.3,61.3,29.75,SSE,158,10.7,10.7,100,0.04,,---,0.22,VWS V14.00,2013-01-30 15:31:00,
2013-01-30 10:36:00,61.3,61.3,29.75,SSE,158,4.9,10.7,100,0.04,,---,0.22,VWS V14.00,2013-01-30 15:36:00,
2013-01-30 10:41:00,61.3,61.3,29.74,SSE,158,5.3,5.3,100,0.04,,---,0.22,VWS V14.00,2013-01-30 15:41:00,
2013-01-30 10:46:00,61.5,61.5,29.75,SSE,158,7.8,7.8,100,0.04,,---,0.22,VWS V14.00,2013-01-30 15:46:00,
2013-01-30 10:51:00,61.7,61.7,29.74,SW,225,3.8,3.8,100,0.04,,---,0.22,VWS V14.00,2013-01-30 15:51:00,
2013-01-30 10:56:00,61.8,61.8,29.74,SW,225,1.1,3.8,100,0.04,,---,0.22,VWS V14.00,2013-01-30 15:56:00,
2013-01-30 11:01:00,62.0,62.0,29.74,SW,225,1.1,1.1,100,0.04,,---,0.22,VWS V14.00,2013-01-30 16:01:00,
2013-01-30 11:06:00,61.8,61.8,29.74,SW,225,3.5,6.2,100,0.04,,---,0.22,VWS V14.00,2013-01-30 16:06:00,
2013-01-30 11:11:00,61.7,61.7,29.74,SSW,202,5.3,5.3,100,0.04,,---,0.25,VWS V14.00,2013-01-30 16:11:00,
2013-01-30 11:16:00,61.7,61.7,29.74,SSW,202,11.8,11.8,100,0.04,,---,0.25,VWS V14.00,2013-01-30 16:16:00,
2013-01-30 17:27:00,58.8,58.8,29.51,SSW,202,0.0,0.0,100,0.00,,---,0.22,VWS V14.00,2013-01-30 22:27:00,
2013-01-30 17:32:00,58.8,58.8,29.52,South,180,0.0,0.8,100,0.00,,---,1.84,VWS V14.00,2013-01-30 22:32:00,
2013-01-30 17:37:00,58.6,58.6,29.51,ESE,112,0.0,0.8,100,0.02,,---,1.86,VWS V14.00,2013-01-30 22:37:00,
2013-01-30 17:42:00,58.6,58.6,29.51,South,180,0.0,0.0,100,0.04,,---,1.88,VWS V14.00,2013-01-30 22:42:00,
2013-01-30 17:47:00,58.4,58.4,29.52,South,180,0.0,0.0,100,0.06,,---,1.90,VWS V14.00,2013-01-30 22:47:00,
2013-01-30 17:52:00,58.2,58.2,29.51,ENE,68,1.1,1.1,100,0.06,,---,1.90,VWS V14.00,2013-01-30 22:52:00,
2013-01-30 17:57:00,58.2,58.2,29.51,WSW,248,0.0,1.1,100,0.08,,---,1.92,VWS V14.00,2013-01-30 22:57:00,
2013-01-30 18:02:00,58.1,58.1,29.51,West,270,0.0,0.0,100,0.12,,---,1.96,VWS V14.00,2013-01-30 23:02:00,
2013-01-30 18:07:00,58.1,58.1,29.50,West,270,0.0,0.0,100,0.12,,---,1.96,VWS V14.00,2013-01-30 23:07:00,
2013-01-30 18:12:00,58.1,58.1,29.49,SW,225,0.0,0.0,100,0.14,,---,1.98,VWS V14.00,2013-01-30 23:12:00,
2013-01-30 18:17:00,57.9,57.9,29.50,West,270,0.0,2.0,100,0.14,,---,1.98,VWS V14.00,2013-01-30 23:17:00,
2013-01-30 18:22:00,57.9,57.9,29.51,WSW,248,0.0,0.0,100,0.16,,---,2.00,VWS V14.00,2013-01-30 23:22:00,
2013-01-30 18:27:00,57.9,57.9,29.51,WSW,248,0.0,0.0,100,0.18,,---,2.02,VWS V14.00,2013-01-30 23:27:00,
2013-01-30 18:32:00,57.9,57.9,29.51,WSW,248,0.0,0.0,100,0.18,,---,2.02,VWS V14.00,2013-01-30 23:32:00,
2013-01-30 18:37:00,57.9,57.9,29.52,WSW,248,0.0,0.0,100,0.20,,---,2.04,VWS V14.00,2013-01-30 23:37:00,
2013-01-30 18:43:00,57.7,57.7,29.50,WNW,292,0.0,0.0,100,0.18,,---,2.04,VWS V14.00,2013-01-30 23:43:00,
2013-01-30 18:48:00,57.7,57.7,29.50,WNW,292,0.0,0.0,100,0.20,,---,2.06,VWS V14.00,2013-01-30 23:48:00,
2013-01-30 18:53:00,57.7,57.7,29.50,WSW,248,0.0,0.0,100,0.17,,---,2.06,VWS V14.00,2013-01-30 23:53:00,
2013-01-30 18:58:00,57.5,57.5,29.50,WSW,248,0.0,0.0,100,0.17,,---,2.06,VWS V14.00,2013-01-30 23:58:00,
2013-01-30 19:03:00,57.3,57.3,29.51,WSW,248,0.4,0.4,100,0.13,,---,2.06,VWS V14.00,2013-01-31 00:03:00,
2013-01-30 19:08:00,57.3,57.3,29.51,SSW,202,4.0,4.0,100,0.13,,---,2.06,VWS V14.00,2013-01-31 00:08:00,
2013-01-30 19:13:00,57.3,57.3,29.50,West,270,4.9,4.9,100,0.10,,---,2.08,VWS V14.00,2013-01-31 00:13:00,
2013-01-30 19:18:00,57.2,57.2,29.50,West,270,0.0,4.9,100,0.10,,---,2.08,VWS V14.00,2013-01-31 00:18:00,
2013-01-30 19:23:00,57.0,57.0,29.48,WSW,248,0.0,2.9,100,0.10,,---,2.10,VWS V14.00,2013-01-31 00:23:00,
2013-01-30 19:28:00,57.0,57.0,29.50,WSW,248,2.2,2.9,100,0.10,,---,2.10,VWS V14.00,2013-01-31 00:28:00,
2013-01-30 19:33:00,57.0,57.0,29.50,West,270,4.6,4.6,100,0.08,,---,2.10,VWS V14.00,2013-01-31 00:33:00,
2013-01-30 19:38:00,57.0,57.0,29.50,West,270,0.0,5.3,100,0.10,,---,2.12,VWS V14.00,2013-01-31 00:38:00,
2013-01-30 19:43:00,56.8,56.8,29.50,West,270,1.5,1.5,100,0.08,,---,2.12,VWS V14.00,2013-01-31 00:43:00,
2013-01-30 19:48:00,56.8,56.8,29.51,West,270,2.0,2.0,100,0.08,,---,2.12,VWS V14.00,2013-01-31 00:48:00,
2013-01-30 19:53:00,56.6,56.6,29.51,WNW,292,4.6,4.6,100,0.06,,---,2.12,VWS V14.00,2013-01-31 00:53:00,
2013-01-30 19:58:00,56.4,56.4,29.52,WNW,292,4.6,5.5,100,0.06,,---,2.12,VWS V14.00,2013-01-31 00:58:00,
2013-01-30 20:03:00,56.3,56.3,29.52,West,270,3.8,6.2,100,0.06,,---,2.12,VWS V14.00,2013-01-31 01:03:00,
2013-01-30 20:08:00,56.1,56.1,29.53,West,270,4.0,6.2,100,0.06,,---,2.12,VWS V14.00,2013-01-31 01:08:00,
2013-01-30 20:13:00,55.9,55.9,29.53,WNW,292,6.7,6.7,100,0.04,,---,2.12,VWS V14.00,2013-01-31 01:13:00,
2013-01-30 20:18:00,55.5,55.5,29.52,West,270,3.3,6.7,100,0.04,,---,2.12,VWS V14.00,2013-01-31 01:18:00,
2013-01-30 20:23:00,55.2,55.2,29.52,West,270,4.4,5.8,100,0.02,,---,2.12,VWS V14.00,2013-01-31 01:23:00,
2013-01-30 20:28:00,54.6,54.0,29.53,West,270,6.4,12.9,98,0.02,,---,2.12,VWS V14.00,2013-01-31 01:28:00,
2013-01-30 20:33:00,54.1,53.3,29.54,West,270,4.0,7.6,97,0.02,,---,2.12,VWS V14.00,2013-01-31 01:33:00,
2013-01-30 20:38:00,53.2,52.1,29.53,WSW,248,4.4,7.6,96,0.02,,---,2.12,VWS V14.00,2013-01-31 01:38:00,
2013-01-30 20:43:00,52.7,51.6,29.53,West,270,3.1,3.1,96,0.00,,---,2.12,VWS V14.00,2013-01-31 01:43:00,
2013-01-30 20:48:00,52.1,51.0,29.54,WSW,248,0.0,5.5,96,0.02,,---,2.14,VWS V14.00,2013-01-31 01:48:00,
2013-01-30 20:53:00,51.6,50.8,29.53,WSW,248,0.0,2.0,97,0.04,,---,2.16,VWS V14.00,2013-01-31 01:53:00,
2013-01-30 20:58:00,51.2,50.4,29.53,SW,225,0.0,2.0,97,0.04,,---,2.16,VWS V14.00,2013-01-31 01:58:00,
2013-01-30 21:03:00,50.7,49.9,29.53,WSW,248,3.3,3.3,97,0.04,,---,2.16,VWS V14.00,2013-01-31 02:03:00,
2013-01-30 21:08:00,50.3,49.5,29.52,WSW,248,0.0,3.3,97,0.04,,---,2.16,VWS V14.00,2013-01-31 02:08:00,
2013-01-30 21:14:00,50.1,49.3,29.52,West,270,3.1,3.1,97,0.04,,---,2.16,VWS V14.00,2013-01-31 02:14:00,
2013-01-30 21:19:00,49.8,48.7,29.52,WSW,248,0.0,5.5,96,0.04,,---,2.16,VWS V14.00,2013-01-31 02:19:00,
2013-01-30 21:24:00,49.6,48.5,29.51,North,0,4.6,4.6,96,0.04,,---,2.16,VWS V14.00,2013-01-31 02:24:00,
2013-01-30 21:29:00,49.2,48.4,29.52,WSW,248,0.8,4.6,97,0.04,,---,2.16,VWS V14.00,2013-01-31 02:29:00,
2013-01-30 21:34:00,49.1,48.0,29.51,SW,225,5.1,5.1,96,0.04,,---,2.16,VWS V14.00,2013-01-31 02:34:00,
2013-01-30 21:39:00,48.7,47.6,29.51,West,270,0.8,5.1,96,0.06,,---,2.19,VWS V14.00,2013-01-31 02:39:00,
2013-01-30 21:44:00,48.5,47.4,29.52,West,270,0.0,0.0,96,0.06,,---,2.19,VWS V14.00,2013-01-31 02:44:00,
2013-01-30 21:49:00,48.3,47.5,29.52,SSE,158,0.6,0.6,97,0.06,,---,2.19,VWS V14.00,2013-01-31 02:49:00,
2013-01-30 21:54:00,48.0,46.9,29.53,South,180,0.0,3.3,96,0.04,,---,2.19,VWS V14.00,2013-01-31 02:54:00,
2013-01-30 21:59:00,48.0,46.9,29.52,NNW,338,0.0,3.3,96,0.04,,---,2.19,VWS V14.00,2013-01-31 02:59:00,
2013-01-30 22:04:00,47.8,46.4,29.53,West,270,3.1,6.4,95,0.02,,---,2.19,VWS V14.00,2013-01-31 03:04:00,
2013-01-30 22:09:00,47.4,46.0,29.53,SW,225,1.7,6.4,95,0.02,,---,2.19,VWS V14.00,2013-01-31 03:09:00,
2013-01-30 22:14:00,47.4,46.3,29.52,South,180,1.3,1.3,96,0.02,,---,2.19,VWS V14.00,2013-01-31 03:14:00,
2013-01-30 22:19:00,47.1,46.0,29.51,West,270,5.8,5.8,96,0.02,,---,2.19,VWS V14.00,2013-01-31 03:19:00,
2013-01-30 22:24:00,47.1,45.7,29.52,NW,315,2.4,6.4,95,0.02,,---,2.19,VWS V14.00,2013-01-31 03:24:00,
2013-01-30 22:29:00,46.9,45.5,29.53,West,270,2.2,6.4,95,0.02,,---,2.19,VWS V14.00,2013-01-31 03:29:00,
2013-01-30 22:34:00,46.9,45.5,29.53,WNW,292,4.2,4.2,95,0.02,,---,2.19,VWS V14.00,2013-01-31 03:34:00,
2013-01-30 22:39:00,46.7,45.1,29.54,West,270,4.0,9.8,94,0.02,,---,2.19,VWS V14.00,2013-01-31 03:39:00,
2013-01-30 22:44:00,46.5,44.6,29.53,SSW,202,2.0,2.0,93,0.00,,---,2.19,VWS V14.00,2013-01-31 03:44:00,
2013-01-30 22:49:00,46.5,44.6,29.53,West,270,1.3,6.2,93,0.00,,---,2.19,VWS V14.00,2013-01-31 03:49:00,
2013-01-30 22:54:00,46.5,44.6,29.55,West,270,2.6,4.4,93,0.00,,---,2.19,VWS V14.00,2013-01-31 03:54:00,
2013-01-30 22:59:00,46.5,44.3,29.54,West,270,5.3,5.3,92,0.00,,---,2.19,VWS V14.00,2013-01-31 03:59:00,
2013-01-30 23:04:00,46.5,44.3,29.53,West,270,0.0,5.3,92,0.00,,---,2.19,VWS V14.00,2013-01-31 04:04:00,
2013-01-30 23:09:00,46.5,44.3,29.54,West,270,0.8,5.3,92,0.00,,---,2.19,VWS V14.00,2013-01-31 04:09:00,
2013-01-30 23:14:00,46.5,44.6,29.54,WNW,292,4.6,6.7,93,0.00,,---,2.19,VWS V14.00,2013-01-31 04:14:00,
2013-01-30 23:19:00,46.4,44.2,29.54,WSW,248,0.0,6.7,92,0.00,,---,2.19,VWS V14.00,2013-01-31 04:19:00,
2013-01-30 23:24:00,46.2,44.0,29.54,West,270,0.0,9.8,92,0.00,,---,2.19,VWS V14.00,2013-01-31 04:24:00,
2013-01-30 23:29:00,46.0,44.1,29.53,WSW,248,0.0,9.8,93,0.00,,---,2.19,VWS V14.00,2013-01-31 04:29:00,
2013-01-30 23:34:00,45.6,43.4,29.53,West,270,1.5,3.1,92,0.00,,---,2.19,VWS V14.00,2013-01-31 04:34:00,
2013-01-30 23:39:00,45.5,43.3,29.53,South,180,6.9,6.9,92,0.00,,---,2.19,VWS V14.00,2013-01-31 04:39:00,
2013-01-30 23:44:00,45.1,42.9,29.53,WNW,292,4.4,4.4,92,0.00,,---,2.19,VWS V14.00,2013-01-31 04:44:00,
2013-01-30 23:49:00,45.1,42.9,29.54,West,270,3.5,4.6,92,0.00,,---,2.19,VWS V14.00,2013-01-31 04:49:00,
2013-01-30 23:54:00,45.1,42.9,29.55,West,270,6.7,6.7,92,0.00,,---,2.19,VWS V14.00,2013-01-31 04:54:00,
2013-01-30 23:59:00,45.1,42.9,29.55,West,270,2.9,6.7,92,0.00,,---,2.19,VWS V14.00,2013-01-31 04:59:00,